SIA7344 FAOR-HKJK

Flight info

Callsign SIA7344
Flight time 3h 37m
Altitude 39000
Route VASUR3A VASUR UZ23 IMKUP DCT VMV UR409 USUBI UM315 EVATO EVATO2P
Aircraft B77L/H-SDE1E2E3FGHIJ4J5M1P2RWXYZ/LB1D1

Departure

Time 2026-05-06 13:19
Airport O.R. Tambo International Airport (FAOR)

Arrival

Time 2026-05-06 16:56
Airport Jomo Kenyatta International Airport (HKJK)
Time Latitude Longitude Altitude Speed Heading
2026-05-06 12:38 -26.11164 28.24228 5522 ft 0 kts 286°
2026-05-06 13:04 -26.11164 28.24229 5522 ft 1 kts 286°
2026-05-06 13:04 -26.11168 28.24244 5522 ft 3 kts 286°
2026-05-06 13:04 -26.11169 28.24248 5522 ft 0 kts 286°
2026-05-06 13:05 -26.11164 28.24228 5522 ft 0 kts 286°
2026-05-06 13:08 -26.11167 28.24240 5522 ft 4 kts 286°
2026-05-06 13:08 -26.11174 28.24269 5527 ft 4 kts 286°
2026-05-06 13:08 -26.11179 28.24291 5522 ft 4 kts 263°
2026-05-06 13:08 -26.11168 28.24309 5525 ft 3 kts 195°
2026-05-06 13:09 -26.11143 28.24316 5526 ft 3 kts 195°
2026-05-06 13:09 -26.11139 28.24318 5526 ft 2 kts 195°
2026-05-06 13:12 -26.11147 28.24315 5526 ft 4 kts 195°
2026-05-06 13:12 -26.11196 28.24300 5526 ft 11 kts 196°
2026-05-06 13:12 -26.11286 28.24272 5527 ft 16 kts 195°
2026-05-06 13:12 -26.11417 28.24232 5529 ft 23 kts 195°
2026-05-06 13:13 -26.11578 28.24181 5530 ft 24 kts 196°
2026-05-06 13:13 -26.11727 28.24136 5531 ft 23 kts 196°
2026-05-06 13:13 -26.11886 28.24086 5533 ft 25 kts 195°
2026-05-06 13:13 -26.12049 28.24035 5543 ft 24 kts 195°
2026-05-06 13:14 -26.12217 28.23984 5545 ft 26 kts 195°
2026-05-06 13:14 -26.12390 28.23930 5550 ft 26 kts 195°
2026-05-06 13:14 -26.12569 28.23875 5551 ft 27 kts 196°
2026-05-06 13:14 -26.12753 28.23818 5554 ft 27 kts 195°
2026-05-06 13:15 -26.12933 28.23762 5553 ft 26 kts 195°
2026-05-06 13:15 -26.13107 28.23708 5554 ft 23 kts 195°
2026-05-06 13:15 -26.13271 28.23657 5553 ft 25 kts 196°
2026-05-06 13:15 -26.13443 28.23604 5556 ft 26 kts 195°
2026-05-06 13:16 -26.13625 28.23547 5558 ft 28 kts 196°
2026-05-06 13:16 -26.13811 28.23491 5564 ft 27 kts 195°
2026-05-06 13:16 -26.13997 28.23433 5567 ft 28 kts 195°
2026-05-06 13:16 -26.14188 28.23373 5569 ft 29 kts 196°
2026-05-06 13:17 -26.14352 28.23322 5570 ft 21 kts 195°
2026-05-06 13:17 -26.14485 28.23282 5569 ft 20 kts 189°
2026-05-06 13:17 -26.14588 28.23312 5570 ft 13 kts 132°
2026-05-06 13:17 -26.14612 28.23413 5572 ft 15 kts 78°
2026-05-06 13:18 -26.14520 28.23472 5570 ft 20 kts 15°
2026-05-06 13:18 -26.14153 28.23583 5571 ft 100 kts 15°
2026-05-06 13:18 -26.13200 28.23871 5562 ft 179 kts 15°
2026-05-06 13:18 -26.11935 28.24389 6021 ft 204 kts 15°
2026-05-06 13:19 -26.10597 28.24863 7039 ft 195 kts
2026-05-06 13:19 -26.09283 28.25258 8042 ft 193 kts
2026-05-06 13:19 -26.07902 28.25621 8627 ft 220 kts
2026-05-06 13:19 -26.06278 28.26061 8940 ft 261 kts
2026-05-06 13:20 -26.04411 28.26213 9531 ft 276 kts 347°
2026-05-06 13:20 -26.02709 28.25663 10530 ft 280 kts 333°
2026-05-06 13:20 -26.00975 28.24536 11324 ft 302 kts 320°
2026-05-06 13:20 -25.99395 28.22828 11611 ft 338 kts 306°
2026-05-06 13:21 -25.98546 28.20466 13194 ft 319 kts 290°
2026-05-06 13:21 -25.97815 28.18148 14649 ft 319 kts 293°
2026-05-06 13:21 -25.96931 28.15834 15620 ft 329 kts 300°
2026-05-06 13:21 -25.95496 28.13828 16813 ft 335 kts 313°
2026-05-06 13:22 -25.93811 28.12046 18164 ft 335 kts 317°
2026-05-06 13:22 -25.91880 28.10582 19421 ft 339 kts 325°
2026-05-06 13:22 -25.89793 28.09314 20495 ft 346 kts 328°
2026-05-06 13:22 -25.87705 28.08120 21366 ft 354 kts 328°
2026-05-06 13:23 -25.85497 28.06855 22288 ft 360 kts 328°
2026-05-06 13:23 -25.83415 28.05643 23158 ft 364 kts 328°
2026-05-06 13:23 -25.81166 28.04312 24064 ft 369 kts 328°
2026-05-06 13:23 -25.78893 28.02952 24886 ft 374 kts 328°
2026-05-06 13:24 -25.76585 28.01562 25706 ft 380 kts 328°
2026-05-06 13:24 -25.74252 28.00152 26559 ft 383 kts 328°
2026-05-06 13:24 -25.71901 27.98730 27401 ft 387 kts 328°
2026-05-06 13:24 -25.69527 27.97292 28172 ft 391 kts 327°
2026-05-06 13:25 -25.69059 27.97008 28322 ft 392 kts 327°
2026-05-06 13:25 -25.67674 27.96170 28729 ft 395 kts 327°
2026-05-06 13:25 -25.66337 27.95361 29141 ft 398 kts 327°
2026-05-06 13:25 -25.64501 27.94251 29672 ft 400 kts 327°
2026-05-06 13:26 -25.62990 27.93338 30099 ft 403 kts 327°
2026-05-06 13:26 -25.61273 27.92318 30517 ft 402 kts 329°
2026-05-06 13:26 -25.59165 27.91460 30779 ft 420 kts 340°
2026-05-06 13:26 -25.56467 27.91085 31189 ft 437 kts 349°
2026-05-06 13:27 -25.53383 27.91182 31751 ft 449 kts 356°
2026-05-06 13:27 -25.50621 27.91772 32338 ft 464 kts
2026-05-06 13:27 -25.47697 27.93037 32870 ft 474 kts 12°
2026-05-06 13:27 -25.44800 27.94441 33404 ft 477 kts 13°
2026-05-06 13:28 -25.41775 27.95946 34013 ft 477 kts 13°
2026-05-06 13:28 -25.38740 27.97446 34553 ft 478 kts 13°
2026-05-06 13:28 -25.35694 27.98925 35118 ft 478 kts 13°
2026-05-06 13:28 -25.32876 28.00270 35670 ft 477 kts 12°
2026-05-06 13:29 -25.30147 28.01555 36188 ft 476 kts 12°
2026-05-06 13:29 -25.27107 28.02976 36815 ft 473 kts 12°
2026-05-06 13:29 -25.24072 28.04391 37365 ft 473 kts 12°
2026-05-06 13:29 -25.21426 28.05624 37855 ft 471 kts 12°
2026-05-06 13:30 -25.18353 28.07057 38471 ft 468 kts 12°
2026-05-06 13:30 -25.15321 28.08470 38997 ft 466 kts 12°
2026-05-06 13:30 -25.12371 28.09842 39413 ft 467 kts 12°
2026-05-06 13:30 -25.09650 28.11106 39752 ft 468 kts 12°
2026-05-06 13:31 -25.06640 28.12504 40038 ft 471 kts 13°
2026-05-06 13:31 -25.00834 28.15198 40014 ft 475 kts 13°
2026-05-06 13:32 -24.94779 28.18020 40001 ft 469 kts 13°
2026-05-06 13:32 -24.89335 28.20547 40007 ft 467 kts 13°
2026-05-06 13:33 -24.83354 28.23318 40011 ft 466 kts 13°
2026-05-06 13:33 -24.77736 28.26316 40023 ft 472 kts 17°
2026-05-06 13:34 -24.72162 28.29524 40019 ft 474 kts 18°
2026-05-06 13:34 -24.66278 28.32894 40032 ft 480 kts 17°
2026-05-06 13:35 -24.60894 28.36023 39994 ft 479 kts 18°
2026-05-06 13:35 -24.54967 28.39358 40027 ft 475 kts 16°
2026-05-06 13:36 -24.49594 28.42351 40017 ft 478 kts 17°
2026-05-06 13:36 -24.43994 28.45548 40020 ft 479 kts 18°
2026-05-06 13:37 -24.38337 28.48831 40038 ft 486 kts 18°
2026-05-06 13:37 -24.32388 28.52223 40026 ft 480 kts 18°
2026-05-06 13:38 -24.26761 28.55420 40039 ft 473 kts 17°
2026-05-06 13:38 -24.20914 28.58617 40021 ft 467 kts 15°
2026-05-06 13:39 -24.15288 28.61696 40045 ft 481 kts 17°
2026-05-06 13:39 -24.09621 28.64937 40092 ft 482 kts 19°
2026-05-06 13:40 -24.03965 28.68237 40061 ft 481 kts 18°
2026-05-06 13:40 -23.98006 28.71618 40045 ft 481 kts 17°
2026-05-06 13:41 -23.92328 28.74817 40049 ft 479 kts 17°
2026-05-06 13:41 -23.86639 28.77902 40033 ft 480 kts 18°
2026-05-06 13:42 -23.80976 28.81154 40055 ft 483 kts 20°
2026-05-06 13:42 -23.75189 28.84515 40068 ft 482 kts 17°
2026-05-06 13:43 -23.69353 28.87721 40045 ft 480 kts 17°
2026-05-06 13:43 -23.63670 28.90872 40058 ft 482 kts 18°
2026-05-06 13:44 -23.57956 28.94060 40059 ft 486 kts 17°
2026-05-06 13:44 -23.52528 28.97051 39997 ft 478 kts 17°
2026-05-06 13:45 -23.46584 29.00342 40059 ft 477 kts 18°
2026-05-06 13:45 -23.38009 29.05071 40078 ft 474 kts 18°
2026-05-06 13:46 -23.32415 29.08237 40051 ft 477 kts 19°
2026-05-06 13:46 -23.26805 29.11484 40057 ft 480 kts 18°
2026-05-06 13:47 -23.21101 29.14657 40043 ft 484 kts 18°
2026-05-06 13:47 -23.15354 29.17784 40061 ft 486 kts 17°
2026-05-06 13:48 -23.09604 29.20925 40051 ft 486 kts 18°
2026-05-06 13:48 -23.03590 29.24283 40063 ft 484 kts 18°
2026-05-06 13:49 -22.97891 29.27428 40030 ft 483 kts 18°
2026-05-06 13:49 -22.92190 29.30579 40043 ft 478 kts 17°
2026-05-06 13:50 -22.86535 29.33666 40091 ft 474 kts 18°
2026-05-06 13:50 -22.80649 29.36949 40039 ft 476 kts 17°
2026-05-06 13:51 -22.75009 29.40045 40035 ft 474 kts 17°
2026-05-06 13:51 -22.69351 29.43146 40045 ft 480 kts 19°
2026-05-06 13:52 -22.63710 29.46370 40101 ft 481 kts 18°
2026-05-06 13:52 -22.57990 29.49469 40029 ft 484 kts 17°
2026-05-06 13:53 -22.52529 29.52429 40022 ft 481 kts 18°
2026-05-06 13:53 -22.46545 29.55667 40022 ft 479 kts 17°
2026-05-06 13:54 -22.41796 29.58206 40007 ft 481 kts 18°
2026-05-06 13:54 -22.36144 29.61338 40037 ft 479 kts 19°
2026-05-06 13:55 -22.30394 29.64436 40006 ft 482 kts 18°
2026-05-06 13:55 -22.24496 29.67786 40021 ft 483 kts 19°
2026-05-06 13:56 -22.18832 29.70916 40002 ft 481 kts 19°
2026-05-06 13:56 -22.13123 29.74025 40018 ft 481 kts 18°
2026-05-06 13:57 -22.07415 29.77122 40007 ft 481 kts 18°
2026-05-06 13:57 -22.01716 29.80225 39999 ft 481 kts 18°
2026-05-06 13:58 -21.96026 29.83328 39996 ft 480 kts 18°
2026-05-06 13:58 -21.90342 29.86421 39986 ft 480 kts 18°
2026-05-06 13:59 -21.84661 29.89507 39996 ft 479 kts 18°
2026-05-06 13:59 -21.79248 29.92444 39992 ft 479 kts 18°
2026-05-06 14:00 -21.73301 29.95672 39981 ft 479 kts 18°
2026-05-06 14:00 -21.67622 29.98748 39981 ft 479 kts 18°
2026-05-06 14:01 -21.61949 30.01820 39981 ft 479 kts 18°
2026-05-06 14:01 -21.56537 30.04748 39981 ft 479 kts 18°
2026-05-06 14:02 -21.50858 30.07818 39985 ft 479 kts 18°
2026-05-06 14:02 -21.45173 30.10889 39968 ft 479 kts 18°
2026-05-06 14:03 -21.39378 30.14014 39966 ft 479 kts 18°
2026-05-06 14:03 -21.33600 30.17129 39965 ft 480 kts 18°
2026-05-06 14:04 -21.27861 30.20223 39983 ft 480 kts 18°
2026-05-06 14:04 -21.22172 30.23285 39997 ft 479 kts 19°
2026-05-06 14:05 -21.16714 30.26219 40008 ft 479 kts 19°
2026-05-06 14:05 -21.11067 30.29253 40005 ft 480 kts 19°
2026-05-06 14:06 -21.05370 30.32310 40002 ft 480 kts 19°
2026-05-06 14:06 -20.99943 30.35221 39994 ft 480 kts 19°
2026-05-06 14:07 -20.94249 30.38271 39978 ft 480 kts 19°
2026-05-06 14:07 -20.88403 30.41402 39963 ft 481 kts 19°
2026-05-06 14:08 -20.82833 30.44382 39978 ft 480 kts 19°
2026-05-06 14:08 -20.77127 30.47432 39976 ft 480 kts 19°
2026-05-06 14:09 -20.71427 30.50477 39969 ft 480 kts 19°
2026-05-06 14:09 -20.65729 30.53519 39983 ft 480 kts 19°
2026-05-06 14:10 -20.60021 30.56561 39982 ft 480 kts 19°
2026-05-06 14:10 -20.54322 30.59596 39976 ft 480 kts 19°
2026-05-06 14:11 -20.48612 30.62635 39982 ft 480 kts 19°
2026-05-06 14:11 -20.42903 30.65671 39984 ft 481 kts 19°
2026-05-06 14:12 -20.37457 30.68565 39987 ft 481 kts 19°
2026-05-06 14:12 -20.31702 30.71621 39990 ft 480 kts 19°
2026-05-06 14:13 -20.25764 30.74772 39994 ft 480 kts 19°
2026-05-06 14:13 -20.20333 30.77651 39984 ft 479 kts 19°
2026-05-06 14:14 -20.14360 30.80816 40000 ft 479 kts 19°
2026-05-06 14:14 -20.08659 30.83834 39992 ft 479 kts 19°
2026-05-06 14:15 -20.03165 30.86696 39994 ft 478 kts 17°
2026-05-06 14:15 -19.97426 30.89422 39988 ft 477 kts 16°
2026-05-06 14:16 -19.91687 30.92084 39988 ft 478 kts 17°
2026-05-06 14:16 -19.85887 30.94805 39990 ft 479 kts 17°
2026-05-06 14:17 -19.79934 30.97620 39995 ft 480 kts 17°
2026-05-06 14:17 -19.73925 31.00470 39995 ft 480 kts 17°
2026-05-06 14:18 -19.67825 31.03362 39985 ft 480 kts 17°
2026-05-06 14:18 -19.61731 31.06246 39991 ft 479 kts 17°
2026-05-06 14:19 -19.55638 31.09123 39987 ft 479 kts 17°
2026-05-06 14:19 -19.49589 31.11982 39996 ft 478 kts 17°
2026-05-06 14:20 -19.43506 31.14847 39999 ft 478 kts 18°
2026-05-06 14:20 -19.37425 31.17714 39999 ft 478 kts 18°
2026-05-06 14:21 -19.31351 31.20577 39996 ft 478 kts 18°
2026-05-06 14:21 -19.25414 31.23372 40010 ft 478 kts 18°
2026-05-06 14:22 -19.19789 31.26017 40011 ft 477 kts 18°
2026-05-06 14:22 -19.13716 31.28872 40014 ft 478 kts 18°
2026-05-06 14:23 -19.07642 31.31727 40017 ft 478 kts 18°
2026-05-06 14:23 -19.01578 31.34603 40022 ft 478 kts 18°
2026-05-06 14:24 -18.95520 31.37485 40028 ft 477 kts 18°
2026-05-06 14:24 -18.89460 31.40364 40029 ft 478 kts 18°
2026-05-06 14:25 -18.83398 31.43237 40052 ft 477 kts 18°
2026-05-06 14:25 -18.77337 31.46107 40053 ft 478 kts 18°
2026-05-06 14:26 -18.71273 31.48977 40051 ft 478 kts 18°
2026-05-06 14:26 -18.65249 31.51826 40057 ft 478 kts 18°
2026-05-06 14:27 -18.59180 31.54694 40057 ft 478 kts 18°
2026-05-06 14:27 -18.53313 31.57464 40067 ft 478 kts 18°
2026-05-06 14:28 -18.47249 31.60326 40076 ft 478 kts 18°
2026-05-06 14:28 -18.41394 31.63086 40055 ft 477 kts 19°
2026-05-06 14:29 -18.35418 31.65902 40082 ft 477 kts 19°
2026-05-06 14:29 -18.29488 31.68694 40055 ft 477 kts 19°
2026-05-06 14:30 -18.23431 31.71544 40076 ft 477 kts 19°
2026-05-06 14:30 -18.17395 31.74390 40027 ft 472 kts 20°
2026-05-06 14:31 -18.11535 31.77173 39852 ft 451 kts 25°
2026-05-06 14:31 -18.05809 31.79899 39759 ft 455 kts 25°
2026-05-06 14:32 -17.99999 31.82661 39753 ft 461 kts 25°
2026-05-06 14:32 -17.94139 31.85441 39748 ft 463 kts 25°
2026-05-06 14:33 -17.88267 31.88222 39749 ft 463 kts 25°
2026-05-06 14:33 -17.82401 31.90999 39747 ft 462 kts 25°
2026-05-06 14:34 -17.76591 31.93748 39747 ft 460 kts 25°
2026-05-06 14:34 -17.70762 31.96504 39747 ft 459 kts 25°
2026-05-06 14:35 -17.64955 31.99248 39744 ft 457 kts 25°
2026-05-06 14:35 -17.59166 32.01981 39746 ft 456 kts 25°
2026-05-06 14:36 -17.53388 32.04707 39748 ft 455 kts 25°
2026-05-06 14:36 -17.47617 32.07429 39746 ft 454 kts 25°
2026-05-06 14:37 -17.41853 32.10144 39747 ft 454 kts 25°
2026-05-06 14:37 -17.36092 32.12857 39748 ft 454 kts 25°
2026-05-06 14:38 -17.30324 32.15571 39754 ft 455 kts 25°
2026-05-06 14:38 -17.24548 32.18287 39752 ft 455 kts 25°
2026-05-06 14:39 -17.18768 32.21004 39745 ft 455 kts 25°
2026-05-06 14:39 -17.12991 32.23717 39745 ft 455 kts 25°
2026-05-06 14:40 -17.07223 32.26435 39749 ft 455 kts 26°
2026-05-06 14:40 -17.01469 32.29168 39746 ft 454 kts 26°
2026-05-06 14:41 -16.95719 32.31901 39749 ft 454 kts 26°
2026-05-06 14:41 -16.90950 32.34164 39745 ft 453 kts 26°
2026-05-06 14:42 -16.85213 32.36883 39748 ft 453 kts 26°
2026-05-06 14:42 -16.79479 32.39599 39745 ft 452 kts 26°
2026-05-06 14:43 -16.73748 32.42312 39748 ft 452 kts 26°
2026-05-06 14:43 -16.68017 32.45023 39740 ft 452 kts 26°
2026-05-06 14:44 -16.62290 32.47730 39749 ft 452 kts 25°
2026-05-06 14:45 -16.53689 32.51793 39752 ft 453 kts 25°
2026-05-06 14:45 -16.47959 32.54522 39748 ft 453 kts 26°
2026-05-06 14:46 -16.42273 32.57342 39748 ft 452 kts 27°
2026-05-06 14:46 -16.36604 32.60173 39747 ft 452 kts 27°
2026-05-06 14:47 -16.30971 32.62971 39750 ft 451 kts 26°
2026-05-06 14:47 -16.25304 32.65776 39745 ft 451 kts 26°
2026-05-06 14:48 -16.19647 32.68573 39754 ft 450 kts 26°
2026-05-06 14:48 -16.13985 32.71371 39746 ft 450 kts 26°
2026-05-06 14:49 -16.08323 32.74166 39751 ft 450 kts 26°
2026-05-06 14:49 -16.02661 32.76961 39745 ft 451 kts 26°
2026-05-06 14:50 -15.96994 32.79756 39749 ft 451 kts 26°
2026-05-06 14:50 -15.91324 32.82551 39747 ft 451 kts 26°
2026-05-06 14:51 -15.85649 32.85347 39747 ft 451 kts 26°
2026-05-06 14:51 -15.79975 32.88140 39752 ft 451 kts 26°
2026-05-06 14:52 -15.74303 32.90931 39747 ft 451 kts 26°
2026-05-06 14:52 -15.68631 32.93720 39745 ft 451 kts 26°
2026-05-06 14:53 -15.62960 32.96508 39751 ft 451 kts 26°
2026-05-06 14:53 -15.57283 32.99293 39753 ft 451 kts 26°
2026-05-06 14:54 -15.51589 33.02030 39746 ft 451 kts 26°
2026-05-06 14:54 -15.45896 33.04748 39748 ft 451 kts 26°
2026-05-06 14:55 -15.40201 33.07473 39745 ft 451 kts 26°
2026-05-06 14:55 -15.34505 33.10201 39751 ft 451 kts 26°
2026-05-06 14:56 -15.28806 33.12930 39749 ft 451 kts 26°
2026-05-06 14:56 -15.23101 33.15660 39744 ft 452 kts 26°
2026-05-06 14:57 -15.17393 33.18390 39749 ft 452 kts 26°
2026-05-06 14:57 -15.11683 33.21119 39747 ft 452 kts 26°
2026-05-06 14:58 -15.06009 33.23830 39743 ft 453 kts 26°
2026-05-06 14:58 -15.00254 33.26577 39741 ft 453 kts 26°
2026-05-06 14:59 -14.94538 33.29221 39749 ft 453 kts 25°
2026-05-06 14:59 -14.88756 33.31833 39750 ft 454 kts 25°
2026-05-06 15:00 -14.82973 33.34454 39744 ft 454 kts 25°
2026-05-06 15:00 -14.77186 33.37086 39745 ft 455 kts 25°
2026-05-06 15:01 -14.71392 33.39722 39751 ft 455 kts 25°
2026-05-06 15:01 -14.65557 33.42375 39748 ft 456 kts 25°
2026-05-06 15:02 -14.59751 33.45013 39748 ft 456 kts 25°
2026-05-06 15:02 -14.53976 33.47638 39747 ft 457 kts 25°
2026-05-06 15:03 -14.48156 33.50293 39746 ft 458 kts 25°
2026-05-06 15:03 -14.42328 33.52954 39744 ft 459 kts 25°
2026-05-06 15:04 -14.36489 33.55617 39754 ft 459 kts 25°
2026-05-06 15:04 -14.30645 33.58280 39749 ft 459 kts 25°
2026-05-06 15:05 -14.24807 33.60939 39748 ft 458 kts 25°
2026-05-06 15:05 -14.18982 33.63590 39745 ft 457 kts 25°
2026-05-06 15:06 -14.13166 33.66236 39746 ft 456 kts 25°
2026-05-06 15:06 -14.07363 33.68874 39749 ft 456 kts 25°
2026-05-06 15:07 -14.01561 33.71511 39747 ft 455 kts 25°
2026-05-06 15:07 -13.95762 33.74145 39748 ft 455 kts 25°
2026-05-06 15:08 -13.89967 33.76776 39746 ft 455 kts 25°
2026-05-06 15:08 -13.84172 33.79406 39747 ft 455 kts 25°
2026-05-06 15:09 -13.78212 33.81632 39748 ft 458 kts 16°
2026-05-06 15:09 -13.72032 33.83222 39750 ft 458 kts 16°
2026-05-06 15:10 -13.65838 33.84812 39747 ft 459 kts 16°
2026-05-06 15:10 -13.59682 33.86414 39751 ft 460 kts 16°
2026-05-06 15:11 -13.53472 33.88041 39749 ft 461 kts 16°
2026-05-06 15:11 -13.47257 33.89671 39745 ft 461 kts 16°
2026-05-06 15:12 -13.41033 33.91300 39747 ft 461 kts 16°
2026-05-06 15:12 -13.34815 33.92927 39752 ft 461 kts 16°
2026-05-06 15:13 -13.28596 33.94553 39748 ft 461 kts 16°
2026-05-06 15:13 -13.22388 33.96176 39744 ft 460 kts 16°
2026-05-06 15:14 -13.16198 33.97793 39747 ft 458 kts 16°
2026-05-06 15:14 -13.10024 33.99405 39746 ft 457 kts 16°
2026-05-06 15:15 -13.03860 34.01014 39748 ft 457 kts 16°
2026-05-06 15:15 -12.97704 34.02616 39749 ft 456 kts 16°
2026-05-06 15:16 -12.91544 34.04192 39746 ft 456 kts 16°
2026-05-06 15:16 -12.85396 34.05758 39748 ft 455 kts 16°
2026-05-06 15:17 -12.79255 34.07323 39751 ft 455 kts 16°
2026-05-06 15:17 -12.73117 34.08890 39749 ft 455 kts 16°
2026-05-06 15:18 -12.66974 34.10458 39746 ft 455 kts 16°
2026-05-06 15:18 -12.60875 34.12014 39748 ft 455 kts 16°
2026-05-06 15:19 -12.54741 34.13578 39747 ft 454 kts 16°
2026-05-06 15:19 -12.48608 34.15141 39746 ft 454 kts 16°
2026-05-06 15:20 -12.42482 34.16701 39747 ft 453 kts 16°
2026-05-06 15:20 -12.36362 34.18259 39750 ft 453 kts 16°
2026-05-06 15:21 -12.30246 34.19816 39747 ft 453 kts 16°
2026-05-06 15:21 -12.24126 34.21372 39747 ft 453 kts 16°
2026-05-06 15:22 -12.18008 34.22927 39748 ft 453 kts 16°
2026-05-06 15:22 -12.11886 34.24483 39748 ft 453 kts 16°
2026-05-06 15:23 -12.05762 34.26039 39748 ft 453 kts 16°
2026-05-06 15:23 -11.99636 34.27594 39747 ft 454 kts 16°
2026-05-06 15:24 -11.93510 34.29148 39748 ft 454 kts 16°
2026-05-06 15:24 -11.87383 34.30702 39748 ft 454 kts 16°
2026-05-06 15:25 -11.81254 34.32256 39747 ft 454 kts 16°
2026-05-06 15:25 -11.75126 34.33809 39748 ft 454 kts 16°
2026-05-06 15:26 -11.68993 34.35362 39747 ft 454 kts 16°
2026-05-06 15:26 -11.62866 34.36913 39747 ft 454 kts 16°
2026-05-06 15:27 -11.56733 34.38465 39747 ft 454 kts 16°
2026-05-06 15:27 -11.50605 34.40016 39748 ft 454 kts 16°
2026-05-06 15:28 -11.44479 34.41565 39750 ft 454 kts 16°
2026-05-06 15:28 -11.38389 34.43106 39748 ft 454 kts 16°
2026-05-06 15:29 -11.32285 34.44733 39748 ft 453 kts 17°
2026-05-06 15:29 -11.26188 34.46383 39747 ft 453 kts 17°
2026-05-06 15:30 -11.20084 34.48021 39747 ft 453 kts 17°
2026-05-06 15:30 -11.13975 34.49624 39748 ft 454 kts 15°
2026-05-06 15:31 -11.07828 34.51104 39747 ft 454 kts 15°
2026-05-06 15:31 -11.02675 34.52329 39747 ft 454 kts 15°
2026-05-06 15:32 -10.93450 34.54549 39747 ft 454 kts 15°
2026-05-06 15:32 -10.87309 34.56035 39747 ft 454 kts 15°
2026-05-06 15:33 -10.81205 34.57511 39748 ft 454 kts 15°
2026-05-06 15:33 -10.75058 34.58997 39747 ft 454 kts 15°
2026-05-06 15:34 -10.68914 34.60481 39748 ft 454 kts 15°
2026-05-06 15:34 -10.62769 34.61965 39748 ft 454 kts 15°
2026-05-06 15:35 -10.56623 34.63449 39747 ft 454 kts 15°
2026-05-06 15:35 -10.50495 34.64996 39747 ft 454 kts 16°
2026-05-06 15:36 -10.44373 34.66610 39750 ft 455 kts 17°
2026-05-06 15:36 -10.38242 34.68223 39745 ft 455 kts 16°
2026-05-06 15:37 -10.32096 34.69829 39750 ft 456 kts 16°
2026-05-06 15:37 -10.25940 34.71432 39745 ft 457 kts 16°
2026-05-06 15:38 -10.19765 34.73039 39753 ft 458 kts 16°
2026-05-06 15:38 -10.13576 34.74649 39745 ft 460 kts 16°
2026-05-06 15:39 -10.07821 34.76146 39743 ft 459 kts 16°
2026-05-06 15:39 -10.01623 34.77757 39747 ft 460 kts 16°
2026-05-06 15:40 -9.95414 34.79371 39750 ft 461 kts 16°
2026-05-06 15:40 -9.89199 34.80985 39745 ft 461 kts 16°
2026-05-06 15:41 -9.83024 34.82589 39741 ft 461 kts 16°
2026-05-06 15:41 -9.76800 34.84205 39758 ft 462 kts 16°
2026-05-06 15:42 -9.70564 34.85823 39748 ft 463 kts 16°
2026-05-06 15:42 -9.64322 34.87442 39748 ft 463 kts 16°
2026-05-06 15:43 -9.58074 34.89062 39751 ft 463 kts 16°
2026-05-06 15:43 -9.51823 34.90683 39748 ft 464 kts 16°
2026-05-06 15:44 -9.45573 34.92302 39751 ft 463 kts 16°
2026-05-06 15:44 -9.39326 34.93921 39748 ft 463 kts 16°
2026-05-06 15:45 -9.33086 34.95537 39749 ft 463 kts 16°
2026-05-06 15:45 -9.26845 34.97132 39748 ft 462 kts 16°
2026-05-06 15:46 -9.20603 34.98692 39746 ft 462 kts 16°
2026-05-06 15:46 -9.14365 35.00251 39750 ft 462 kts 16°
2026-05-06 15:47 -9.08127 35.01814 39752 ft 462 kts 16°
2026-05-06 15:47 -9.01894 35.03378 39748 ft 462 kts 16°
2026-05-06 15:48 -8.95662 35.04941 39751 ft 461 kts 16°
2026-05-06 15:48 -8.89435 35.06502 39746 ft 461 kts 16°
2026-05-06 15:49 -8.83210 35.08062 39751 ft 461 kts 16°
2026-05-06 15:49 -8.76989 35.09620 39749 ft 460 kts 16°
2026-05-06 15:50 -8.70773 35.11177 39743 ft 460 kts 16°
2026-05-06 15:50 -8.64550 35.12735 39747 ft 461 kts 16°
2026-05-06 15:51 -8.58353 35.14286 39748 ft 462 kts 16°
2026-05-06 15:51 -8.52105 35.15856 39750 ft 463 kts 16°
2026-05-06 15:52 -8.45844 35.17431 39749 ft 464 kts 16°
2026-05-06 15:52 -8.39579 35.19008 39748 ft 464 kts 16°
2026-05-06 15:53 -8.33308 35.20584 39748 ft 465 kts 16°
2026-05-06 15:53 -8.27032 35.22162 39751 ft 465 kts 16°
2026-05-06 15:54 -8.20764 35.23736 39746 ft 464 kts 16°
2026-05-06 15:54 -8.14505 35.25308 39744 ft 463 kts 16°
2026-05-06 15:55 -8.08257 35.26877 39748 ft 462 kts 16°
2026-05-06 15:55 -8.02013 35.28444 39747 ft 462 kts 16°
2026-05-06 15:56 -7.95768 35.30011 39750 ft 463 kts 16°
2026-05-06 15:56 -7.89523 35.31577 39745 ft 463 kts 16°
2026-05-06 15:57 -7.83278 35.33143 39746 ft 462 kts 16°
2026-05-06 15:57 -7.77038 35.34707 39747 ft 462 kts 16°
2026-05-06 15:58 -7.70806 35.36269 39750 ft 461 kts 16°
2026-05-06 15:58 -7.64591 35.37826 39745 ft 459 kts 16°
2026-05-06 15:59 -7.58406 35.39375 39746 ft 457 kts 16°
2026-05-06 15:59 -7.52249 35.40916 39746 ft 455 kts 16°
2026-05-06 16:00 -7.46113 35.42452 39746 ft 454 kts 16°
2026-05-06 16:00 -7.39985 35.43986 39748 ft 453 kts 16°
2026-05-06 16:01 -7.33863 35.45517 39747 ft 453 kts 16°
2026-05-06 16:01 -7.27741 35.47049 39750 ft 454 kts 16°
2026-05-06 16:02 -7.21653 35.48571 39748 ft 454 kts 16°
2026-05-06 16:02 -7.15476 35.50115 39750 ft 455 kts 16°
2026-05-06 16:03 -7.09372 35.51640 39749 ft 455 kts 16°
2026-05-06 16:03 -7.03218 35.53177 39748 ft 456 kts 16°
2026-05-06 16:04 -6.97058 35.54716 39744 ft 456 kts 16°
2026-05-06 16:04 -6.90891 35.56255 39748 ft 457 kts 16°
2026-05-06 16:05 -6.84724 35.57795 39747 ft 457 kts 16°
2026-05-06 16:05 -6.78548 35.59336 39749 ft 457 kts 16°
2026-05-06 16:06 -6.72376 35.60876 39748 ft 457 kts 16°
2026-05-06 16:06 -6.66197 35.62417 39750 ft 457 kts 16°
2026-05-06 16:07 -6.60019 35.63957 39746 ft 457 kts 16°
2026-05-06 16:07 -6.53842 35.65497 39750 ft 458 kts 16°
2026-05-06 16:08 -6.47659 35.67038 39746 ft 458 kts 16°
2026-05-06 16:08 -6.41479 35.68578 39747 ft 458 kts 16°
2026-05-06 16:09 -6.35298 35.70118 39748 ft 458 kts 16°
2026-05-06 16:09 -6.29114 35.71658 39743 ft 458 kts 16°
2026-05-06 16:10 -6.22925 35.73199 39750 ft 459 kts 16°
2026-05-06 16:10 -6.16715 35.74696 39757 ft 459 kts 13°
2026-05-06 16:11 -6.10364 35.75558 39746 ft 461 kts
2026-05-06 16:11 -6.03992 35.76297 39749 ft 461 kts
2026-05-06 16:12 -5.97624 35.77058 39746 ft 461 kts
2026-05-06 16:12 -5.91305 35.77829 39752 ft 460 kts
2026-05-06 16:13 -5.84947 35.78609 39747 ft 460 kts
2026-05-06 16:13 -5.78593 35.79386 39748 ft 460 kts
2026-05-06 16:14 -5.72238 35.80164 39747 ft 460 kts
2026-05-06 16:14 -5.65881 35.80941 39747 ft 461 kts
2026-05-06 16:15 -5.59515 35.81729 39747 ft 462 kts
2026-05-06 16:15 -5.53135 35.82526 39750 ft 462 kts
2026-05-06 16:16 -5.46747 35.83323 39746 ft 462 kts
2026-05-06 16:16 -5.40366 35.84118 39747 ft 462 kts
2026-05-06 16:17 -5.33999 35.84911 39746 ft 461 kts
2026-05-06 16:17 -5.27639 35.85703 39748 ft 460 kts
2026-05-06 16:18 -5.21284 35.86496 39745 ft 460 kts
2026-05-06 16:18 -5.14933 35.87288 39749 ft 460 kts
2026-05-06 16:19 -5.09652 35.87946 39746 ft 460 kts
2026-05-06 16:19 -5.03297 35.88738 39748 ft 460 kts
2026-05-06 16:20 -4.96940 35.89531 39746 ft 461 kts
2026-05-06 16:20 -4.90561 35.90326 39750 ft 462 kts
2026-05-06 16:21 -4.84168 35.91122 39747 ft 464 kts
2026-05-06 16:21 -4.77762 35.91919 39753 ft 464 kts
2026-05-06 16:22 -4.71338 35.92719 39757 ft 465 kts
2026-05-06 16:22 -4.64923 35.93518 39744 ft 464 kts
2026-05-06 16:23 -4.58530 35.94314 39745 ft 462 kts
2026-05-06 16:23 -4.52161 35.95106 39745 ft 460 kts
2026-05-06 16:24 -4.46258 35.95840 39747 ft 459 kts
2026-05-06 16:24 -4.39920 35.96615 39748 ft 459 kts
2026-05-06 16:25 -4.33587 35.97387 39748 ft 459 kts
2026-05-06 16:25 -4.27247 35.98161 39748 ft 459 kts
2026-05-06 16:26 -4.20904 35.98936 39751 ft 460 kts
2026-05-06 16:26 -4.14548 35.99713 39746 ft 460 kts
2026-05-06 16:27 -4.08188 36.00491 39749 ft 460 kts
2026-05-06 16:27 -4.01868 36.01263 39747 ft 461 kts
2026-05-06 16:28 -3.95503 36.02040 39750 ft 461 kts
2026-05-06 16:28 -3.89135 36.02818 39751 ft 461 kts
2026-05-06 16:29 -3.82765 36.03596 39748 ft 461 kts
2026-05-06 16:29 -3.76396 36.04374 39745 ft 461 kts
2026-05-06 16:30 -3.71106 36.05020 39748 ft 460 kts
2026-05-06 16:30 -3.63680 36.05935 39751 ft 460 kts
2026-05-06 16:31 -3.57339 36.06734 39746 ft 459 kts
2026-05-06 16:31 -3.50998 36.07533 39747 ft 459 kts
2026-05-06 16:32 -3.44657 36.08330 39748 ft 459 kts
2026-05-06 16:32 -3.38303 36.09127 39747 ft 462 kts
2026-05-06 16:33 -3.31920 36.09930 39751 ft 463 kts
2026-05-06 16:34 -3.22329 36.11132 39748 ft 462 kts
2026-05-06 16:34 -3.15964 36.11977 39744 ft 459 kts 13°
2026-05-06 16:35 -3.09824 36.13599 39744 ft 454 kts 21°
2026-05-06 16:35 -3.03994 36.15974 39748 ft 452 kts 24°
2026-05-06 16:36 -2.98201 36.18409 39743 ft 452 kts 24°
2026-05-06 16:36 -2.92385 36.20833 39744 ft 455 kts 24°
2026-05-06 16:37 -2.86452 36.23288 39766 ft 466 kts 24°
2026-05-06 16:37 -2.80510 36.25740 39747 ft 461 kts 24°
2026-05-06 16:38 -2.74627 36.28166 39738 ft 454 kts 24°
2026-05-06 16:38 -2.68827 36.30559 39741 ft 449 kts 24°
2026-05-06 16:39 -2.63065 36.32939 39748 ft 448 kts 24°
2026-05-06 16:39 -2.57279 36.35327 39752 ft 452 kts 24°
2026-05-06 16:39 -2.54335 36.36543 38915 ft 465 kts 24°
2026-05-06 16:40 -2.51353 36.37774 38104 ft 462 kts 24°
2026-05-06 16:40 -2.48395 36.38994 37200 ft 459 kts 24°
2026-05-06 16:40 -2.45447 36.40210 36257 ft 457 kts 24°
2026-05-06 16:40 -2.42515 36.41420 35265 ft 455 kts 24°
2026-05-06 16:41 -2.39585 36.42629 34111 ft 456 kts 24°
2026-05-06 16:41 -2.36647 36.43841 32913 ft 458 kts 25°
2026-05-06 16:41 -2.33688 36.45031 31694 ft 460 kts 24°
2026-05-06 16:41 -2.30619 36.46006 30512 ft 465 kts 19°
2026-05-06 16:42 -2.27499 36.46868 29491 ft 465 kts 19°
2026-05-06 16:42 -2.24362 36.47736 28531 ft 472 kts 20°
2026-05-06 16:42 -2.21164 36.48629 27577 ft 482 kts 20°
2026-05-06 16:42 -2.17931 36.49537 26614 ft 482 kts 19°
2026-05-06 16:43 -2.14718 36.50441 25632 ft 478 kts 19°
2026-05-06 16:43 -2.11531 36.51340 24692 ft 474 kts 18°
2026-05-06 16:43 -2.08365 36.52235 23759 ft 471 kts 17°
2026-05-06 16:43 -2.05219 36.53126 22822 ft 469 kts 16°
2026-05-06 16:44 -2.02089 36.54013 21900 ft 466 kts 15°
2026-05-06 16:44 -1.98985 36.54892 20985 ft 462 kts 14°
2026-05-06 16:44 -1.95902 36.55764 20083 ft 458 kts 14°
2026-05-06 16:44 -1.92853 36.56627 19196 ft 453 kts 13°
2026-05-06 16:45 -1.89843 36.57477 18303 ft 447 kts 13°
2026-05-06 16:45 -1.86883 36.58314 17535 ft 437 kts 13°
2026-05-06 16:45 -1.83984 36.59134 16742 ft 429 kts 13°
2026-05-06 16:45 -1.81150 36.59934 16063 ft 417 kts 13°
2026-05-06 16:46 -1.78425 36.60706 15240 ft 399 kts 13°
2026-05-06 16:46 -1.75810 36.61445 14211 ft 380 kts 14°
2026-05-06 16:46 -1.73335 36.62144 13122 ft 361 kts 14°
2026-05-06 16:46 -1.71027 36.62796 12620 ft 328 kts 14°
2026-05-06 16:47 -1.68929 36.63390 12213 ft 300 kts 14°
2026-05-06 16:47 -1.66976 36.63942 11604 ft 284 kts 14°
2026-05-06 16:47 -1.65107 36.64470 10974 ft 276 kts 14°
2026-05-06 16:47 -1.63274 36.64987 10363 ft 271 kts 14°
2026-05-06 16:48 -1.61520 36.65483 9920 ft 260 kts 14°
2026-05-06 16:48 -1.59746 36.65983 9608 ft 263 kts 14°
2026-05-06 16:48 -1.57985 36.66480 9272 ft 269 kts 14°
2026-05-06 16:48 -1.56159 36.66996 8898 ft 268 kts 14°
2026-05-06 16:49 -1.54398 36.67493 8511 ft 265 kts 14°
2026-05-06 16:49 -1.52638 36.67990 8130 ft 261 kts 14°
2026-05-06 16:49 -1.50938 36.68470 7733 ft 248 kts 14°
2026-05-06 16:49 -1.49370 36.69174 7516 ft 255 kts 37°
2026-05-06 16:50 -1.48176 36.70491 7506 ft 254 kts 50°
2026-05-06 16:50 -1.47138 36.71875 7497 ft 243 kts 51°
2026-05-06 16:50 -1.46171 36.73202 7489 ft 227 kts 52°
2026-05-06 16:50 -1.45280 36.74430 7515 ft 211 kts 51°
2026-05-06 16:51 -1.44433 36.75596 7504 ft 208 kts 51°
2026-05-06 16:51 -1.43579 36.76769 7512 ft 209 kts 51°
2026-05-06 16:51 -1.42729 36.77938 7520 ft 207 kts 51°
2026-05-06 16:51 -1.41898 36.79081 7540 ft 200 kts 51°
2026-05-06 16:52 -1.41075 36.80211 7511 ft 202 kts 51°
2026-05-06 16:52 -1.40246 36.81350 7512 ft 203 kts 51°
2026-05-06 16:52 -1.39414 36.82494 7510 ft 204 kts 51°
2026-05-06 16:52 -1.38585 36.83634 7290 ft 197 kts 51°
2026-05-06 16:53 -1.37823 36.84684 7028 ft 179 kts 51°
2026-05-06 16:53 -1.37125 36.85643 6798 ft 161 kts 51°
2026-05-06 16:53 -1.36494 36.86510 6609 ft 152 kts 50°
2026-05-06 16:53 -1.35871 36.87365 6404 ft 152 kts 51°
2026-05-06 16:54 -1.35251 36.88216 6199 ft 150 kts 51°
2026-05-06 16:54 -1.34640 36.89052 5989 ft 147 kts 51°
2026-05-06 16:54 -1.34034 36.89885 5797 ft 150 kts 51°
2026-05-06 16:54 -1.33432 36.90717 5650 ft 147 kts 52°
2026-05-06 16:55 -1.32839 36.91536 5450 ft 147 kts 52°
2026-05-06 16:55 -1.32239 36.92355 5337 ft 137 kts 50°
2026-05-06 16:55 -1.31753 36.93012 5310 ft 95 kts 54°
2026-05-06 16:55 -1.31455 36.93420 5305 ft 63 kts 54°
2026-05-06 16:56 -1.31245 36.93707 5302 ft 28 kts 54°
2026-05-06 16:56 -1.31196 36.93842 5300 ft 18 kts 128°
2026-05-06 16:56 -1.31294 36.93915 5304 ft 17 kts 144°
2026-05-06 16:56 -1.31392 36.93986 5303 ft 18 kts 148°
2026-05-06 16:57 -1.31480 36.93942 5303 ft 15 kts 232°
2026-05-06 16:57 -1.31538 36.93863 5307 ft 14 kts 233°
2026-05-06 16:57 -1.31602 36.93776 5307 ft 18 kts 234°
2026-05-06 16:57 -1.31685 36.93663 5307 ft 22 kts 233°
2026-05-06 16:58 -1.31783 36.93530 5309 ft 26 kts 234°
2026-05-06 16:58 -1.31889 36.93383 5307 ft 23 kts 234°
2026-05-06 16:58 -1.31989 36.93247 5315 ft 26 kts 233°
2026-05-06 16:58 -1.32095 36.93101 5317 ft 23 kts 234°
2026-05-06 16:59 -1.32195 36.92964 5318 ft 25 kts 234°
2026-05-06 16:59 -1.32303 36.92818 5319 ft 27 kts 233°
2026-05-06 16:59 -1.32411 36.92670 5332 ft 26 kts 234°
2026-05-06 16:59 -1.32517 36.92525 5335 ft 21 kts 234°
2026-05-06 17:00 -1.32610 36.92399 5335 ft 24 kts 234°
2026-05-06 17:00 -1.32714 36.92255 5335 ft 24 kts 234°
2026-05-06 17:00 -1.32811 36.92124 5337 ft 24 kts 234°
2026-05-06 17:00 -1.32911 36.91984 5338 ft 25 kts 234°
2026-05-06 17:01 -1.33017 36.91843 5340 ft 27 kts 234°
2026-05-06 17:01 -1.33124 36.91696 5335 ft 26 kts 230°
2026-05-06 17:01 -1.33225 36.91608 5329 ft 12 kts 203°
2026-05-06 17:01 -1.33284 36.91632 5334 ft 6 kts 144°
2026-05-06 17:02 -1.33298 36.91642 5329 ft 4 kts 144°
2026-05-06 17:02 -1.33312 36.91653 5329 ft 0 kts 144°